Location: Boitzum
(52.1496°N, 9.6943°E)
Time: 01:11:21
(UTC+00:00)

Cosmos 2074 Rocket - Pass Details

Date: 22 April 2026
Orbit: 967 x 984 km, 82.9° (Epoch: 19 May)

Event Time Altitude Azimuth Distance (km) Brightness Sun altitude
Rises 03:18:55 0° 353° (N) 3,705 7.4 -7.8°
Reaches altitude 10° 03:21:49 10° 5° (N) 2,754 6.9 -7.4°
Maximum altitude 03:27:16 30° 64° (ENE) 1,707 6.3 -6.7°
Drops below altitude 10° 03:32:41 10° 124° (SE) 2,738 6.7 -6.0°
Sets 03:35:33 0° 135° (SE) 3,681 7.3 -5.6°
